KUIPER-00293

导读

KUIPER-00293(NORAD编号68593)是亚马逊Kuiper低轨卫星星座计划中的一颗卫星。Kuiper项目旨在通过数千颗低轨卫星,为全球提供宽带互联网接入服务,目前正逐步推进卫星部署发射。该卫星运行于近地轨道,作为星座组网的组成部分,承担太空通信基础设施功能,支撑全球网络覆盖,尤其是偏远地区互联网接入服务,与SpaceX星网同属大规模低轨宽带通信星座竞争格局中的重要节点,推动全球卫星互联网发展进程。

基本信息
目录编号:
68593
目录名称:
KUIPER-00293
国际标识:
2026-072W
轨道中心:
EARTH
卫星名称:
KUIPER-00293
卫星全名:
KUIPER-00293
卫星状态:
在轨 (已飞行161 天)
发射日期:
2026-04-04 UTC
国别 :
美国 (US)
星等 :
--
该卫星已列入 空间交会检测服务 Space Conjunction Data Service (SCDS) ,当前飞行风险评估等级: 无高风险
轨道信息
数据来源 国际轨道数据 AOE轨道数据
星历时间 2026-09-12T07:23:50+0800
9小时前
查看轨道信息
2026-09-09T23:00:00+0800
2天前
查看轨道信息
半长轴 7007.685km 7007.652km
偏心率 0.0001778 0.0002166
轨道倾角 51.897° 51.898°
近地点辐角 35.264° 20.616°
升交点赤经 164.352° 174.744°
平近点角 324.844° 52.384°
近地点 628.302km 627.997km
远地点 630.794km 631.033km
周期 97.302分钟 97.301分钟
每日圈数 14.799292 14.799398
详细信息
使用方式:
暂无
2D轨道图
3D轨道图
轨道高度分析图
轨道倾角分析图
轨道综合分析图
查看轨道综合分析图
交会数据列表
事件ID 空间交会对象 最接近时刻(TCA) 交会距离 交会风险概率(CRP) 交会风险指数(CRI) 操作
CDM_260914-133303-234006-859321
2026-09-14T
13:33:02+0000
1.679 km
极远距离
4.54407E-6 低风险 0.48
与全量物体交会距离演化趋势
与全量物体交会风险概率演化趋势